Wetterdaten: Sonntag, 17.07.2005
Datum Zeit Temp. A Sch. Temp. A Son. Feuchte A. Luftdruck Regen Wind Richtung Richtung Sonnenschein Helligkeit Taupunkt Windchill
17.07.2005 00:00 15,5 C 17,2 C 76 % 1015 hPa 0,0 l/m 0,0 m/s (0 Bft) O-NO 60 0,00 min 0 lux 11,3 C 15,5 C
17.07.2005 00:05 15,4 C 17,1 C 76 % 1015 hPa 0,0 l/m 0,0 m/s (0 Bft) O-NO 65 0,00 min 0 lux 11,2 C 15,4 C
17.07.2005 00:10 15,3 C 16,9 C 77 % 1015 hPa 0,0 l/m 0,0 m/s (0 Bft) O-NO 60 0,00 min 0 lux 11,3 C 15,3 C
17.07.2005 00:15 15,4 C 16,8 C 77 % 1015 hPa 0,0 l/m 0,0 m/s (0 Bft) O-NO 60 0,00 min 0 lux 11,4 C 15,4 C
17.07.2005 00:20 15,2 C 16,7 C 77 % 1015 hPa 0,0 l/m 0,0 m/s (0 Bft) O-NO 60 0,00 min 0 lux 11,2 C 15,2 C
17.07.2005 00:25 15,0 C 16,6 C 77 % 1015 hPa 0,0 l/m 0,0 m/s (0 Bft) O-NO 60 0,00 min 0 lux 11,0 C 15,0 C
17.07.2005 00:30 14,8 C 16,5 C 79 % 1015 hPa 0,0 l/m 0,0 m/s (0 Bft) O-NO 60 0,00 min 0 lux 11,2 C 14,8 C
17.07.2005 00:35 14,9 C 16,4 C 79 % 1015 hPa 0,0 l/m 0,0 m/s (0 Bft) O-NO 60 0,00 min 0 lux 11,3 C 14,9 C
17.07.2005 00:40 14,7 C 16,3 C 79 % 1015 hPa 0,0 l/m 0,0 m/s (0 Bft) O-NO 60 0,00 min 0 lux 11,1 C 14,7 C
17.07.2005 00:45 14,9 C 16,2 C 80 % 1015 hPa 0,0 l/m 0,0 m/s (0 Bft) O-NO 65 0,00 min 0 lux 11,5 C 14,9 C
17.07.2005 00:50 14,7 C 16,1 C 79 % 1015 hPa 0,0 l/m 0,0 m/s (0 Bft) O-NO 60 0,00 min 0 lux 11,1 C 14,7 C
17.07.2005 00:55 14,5 C 16,0 C 80 % 1015 hPa 0,0 l/m 0,0 m/s (0 Bft) O-NO 65 0,00 min 0 lux 11,1 C 14,5 C
17.07.2005 01:00 14,4 C 15,9 C 80 % 1015 hPa 0,0 l/m 0,0 m/s (0 Bft) O-NO 65 0,00 min 0 lux 11,0 C 14,4 C
17.07.2005 01:05 14,2 C 15,8 C 80 % 1015 hPa 0,0 l/m 0,0 m/s (0 Bft) O-NO 65 0,00 min 0 lux 10,8 C 14,2 C
17.07.2005 01:10 14,2 C 15,6 C 80 % 1015 hPa 0,0 l/m 0,0 m/s (0 Bft) O-NO 65 0,00 min 0 lux 10,8 C 14,2 C
17.07.2005 01:15 14,1 C 15,6 C 81 % 1015 hPa 0,0 l/m 0,0 m/s (0 Bft) O-NO 60 0,00 min 0 lux 10,9 C 14,1 C
17.07.2005 01:20 14,1 C 15,4 C 81 % 1015 hPa 0,0 l/m 0,0 m/s (0 Bft) O-NO 60 0,00 min 0 lux 10,9 C 14,1 C
17.07.2005 01:25 14,0 C 15,4 C 81 % 1016 hPa 0,0 l/m 0,0 m/s (0 Bft) O-NO 60 0,00 min 0 lux 10,8 C 14,0 C
17.07.2005 01:30 13,7 C 15,3 C 82 % 1016 hPa 0,0 l/m 0,0 m/s (0 Bft) O-NO 60 0,00 min 0 lux 10,7 C 13,7 C
17.07.2005 01:35 13,7 C 15,2 C 82 % 1016 hPa 0,0 l/m 0,0 m/s (0 Bft) O-NO 60 0,00 min 0 lux 10,7 C 13,7 C
17.07.2005 01:40 13,7 C 15,1 C 82 % 1016 hPa 0,0 l/m 0,0 m/s (0 Bft) O-NO 60 0,00 min 0 lux 10,7 C 13,7 C
17.07.2005 01:45 13,8 C 15,0 C 83 % 1016 hPa 0,0 l/m 0,0 m/s (0 Bft) O-NO 60 0,00 min 0 lux 11,0 C 13,8 C
17.07.2005 01:50 13,8 C 15,0 C 83 % 1016 hPa 0,0 l/m 0,0 m/s (0 Bft) O-NO 60 0,00 min 0 lux 11,0 C 13,8 C
17.07.2005 01:55 13,8 C 14,9 C 83 % 1016 hPa 0,0 l/m 0,0 m/s (0 Bft) O-NO 60 0,00 min 0 lux 11,0 C 13,8 C
17.07.2005 02:00 13,8 C 14,8 C 83 % 1016 hPa 0,0 l/m 0,0 m/s (0 Bft) O-NO 60 0,00 min 0 lux 11,0 C 13,8 C
17.07.2005 02:05 13,3 C 14,7 C 83 % 1016 hPa 0,0 l/m 0,0 m/s (0 Bft) O-NO 60 0,00 min 0 lux 10,5 C 13,3 C
17.07.2005 02:10 13,3 C 14,7 C 83 % 1015 hPa 0,0 l/m 0,0 m/s (0 Bft) O-NO 60 0,00 min 0 lux 10,5 C 13,3 C
17.07.2005 02:15 13,3 C 14,6 C 84 % 1015 hPa 0,0 l/m 0,0 m/s (0 Bft) O-NO 60 0,00 min 0 lux 10,7 C 13,3 C
17.07.2005 02:20 13,2 C 14,5 C 84 % 1015 hPa 0,0 l/m 0,0 m/s (0 Bft) O-NO 60 0,00 min 0 lux 10,6 C 13,2 C
17.07.2005 02:25 13,1 C 14,4 C 84 % 1015 hPa 0,0 l/m 0,0 m/s (0 Bft) O-NO 60 0,00 min 0 lux 10,5 C 13,1 C
17.07.2005 02:30 13,0 C 14,3 C 84 % 1015 hPa 0,0 l/m 0,0 m/s (0 Bft) O-NO 60 0,00 min 0 lux 10,4 C 13,0 C
17.07.2005 02:35 13,0 C 14,2 C 84 % 1015 hPa 0,0 l/m 0,0 m/s (0 Bft) O-NO 60 0,00 min 0 lux 10,4 C 13,0 C
17.07.2005 02:40 12,7 C 14,2 C 85 % 1015 hPa 0,0 l/m 0,0 m/s (0 Bft) O-NO 60 0,00 min 0 lux 10,2 C 12,7 C
17.07.2005 02:45 12,7 C 14,1 C 85 % 1015 hPa 0,0 l/m 0,0 m/s (0 Bft) O-NO 60 0,00 min 0 lux 10,2 C 12,7 C
17.07.2005 02:50 12,7 C 14,0 C 86 % 1016 hPa 0,0 l/m 0,0 m/s (0 Bft) O-NO 60 0,00 min 0 lux 10,4 C 12,7 C
17.07.2005 02:55 12,6 C 13,9 C 87 % 1015 hPa 0,0 l/m 0,0 m/s (0 Bft) O-NO 60 0,00 min 0 lux 10,5 C 12,6 C
17.07.2005 03:00 12,6 C 13,8 C 87 % 1015 hPa 0,0 l/m 0,0 m/s (0 Bft) O-NO 60 0,00 min 0 lux 10,5 C 12,6 C
17.07.2005 03:05 12,5 C 13,8 C 87 % 1015 hPa 0,0 l/m 0,0 m/s (0 Bft) O-NO 60 0,00 min 0 lux 10,4 C 12,5 C
17.07.2005 03:10 12,4 C 13,8 C 87 % 1015 hPa 0,0 l/m 0,0 m/s (0 Bft) O-NO 60 0,00 min 0 lux 10,3 C 12,4 C
17.07.2005 03:15 12,4 C 13,7 C 87 % 1015 hPa 0,0 l/m 0,0 m/s (0 Bft) O-NO 60 0,00 min 0 lux 10,3 C 12,4 C
17.07.2005 03:20 12,4 C 13,6 C 87 % 1015 hPa 0,0 l/m 0,0 m/s (0 Bft) O-NO 60 0,00 min 0 lux 10,3 C 12,4 C
17.07.2005 03:25 12,3 C 13,5 C 88 % 1015 hPa 0,0 l/m 0,0 m/s (0 Bft) O-NO 60 0,00 min 0 lux 10,4 C 12,3 C
17.07.2005 03:30 12,3 C 13,5 C 88 % 1015 hPa 0,0 l/m 0,0 m/s (0 Bft) O-NO 60 0,00 min 0 lux 10,4 C 12,3 C
17.07.2005 03:35 12,4 C 13,5 C 87 % 1015 hPa 0,0 l/m 0,0 m/s (0 Bft) O-NO 60 0,00 min 0 lux 10,3 C 12,4 C
17.07.2005 03:40 12,1 C 13,4 C 87 % 1015 hPa 0,0 l/m 0,0 m/s (0 Bft) O-NO 60 0,00 min 0 lux 10,0 C 12,1 C
17.07.2005 03:45 12,1 C 13,3 C 87 % 1015 hPa 0,0 l/m 0,0 m/s (0 Bft) O-NO 60 0,00 min 0 lux 10,0 C 12,1 C
17.07.2005 03:50 12,0 C 13,2 C 87 % 1015 hPa 0,0 l/m 0,0 m/s (0 Bft) O-NO 60 0,00 min 0 lux 9,9 C 12,0 C
17.07.2005 03:55 11,9 C 13,2 C 88 % 1015 hPa 0,0 l/m 0,0 m/s (0 Bft) O-NO 60 0,00 min 0 lux 10,0 C 11,9 C
17.07.2005 04:00 11,8 C 13,1 C 88 % 1015 hPa 0,0 l/m 0,0 m/s (0 Bft) O-NO 60 0,00 min 0 lux 9,9 C 11,8 C
17.07.2005 04:05 11,8 C 13,1 C 88 % 1015 hPa 0,0 l/m 0,0 m/s (0 Bft) O-NO 60 0,00 min 0 lux 9,9 C 11,8 C
17.07.2005 04:10 11,8 C 13,0 C 88 % 1015 hPa 0,0 l/m 0,0 m/s (0 Bft) O-NO 65 0,00 min 0 lux 9,9 C 11,8 C
17.07.2005 04:15 11,7 C 12,9 C 89 % 1015 hPa 0,0 l/m 0,0 m/s (0 Bft) O-NO 65 0,00 min 0 lux 9,9 C 11,7 C
17.07.2005 04:20 11,7 C 12,9 C 89 % 1015 hPa 0,0 l/m 0,0 m/s (0 Bft) O-NO 65 0,00 min 0 lux 9,9 C 11,7 C
17.07.2005 04:25 11,8 C 12,8 C 89 % 1015 hPa 0,0 l/m 0,0 m/s (0 Bft) O-NO 65 0,00 min 0 lux 10,0 C 11,8 C
17.07.2005 04:30 11,6 C 12,8 C 89 % 1016 hPa 0,0 l/m 0,0 m/s (0 Bft) O-NO 65 0,00 min 0 lux 9,8 C 11,6 C
17.07.2005 04:35 11,7 C 12,7 C 89 % 1016 hPa 0,0 l/m 0,0 m/s (0 Bft) O-NO 65 0,00 min 0 lux 9,9 C 11,7 C
17.07.2005 04:40 11,5 C 12,7 C 89 % 1016 hPa 0,0 l/m 0,0 m/s (0 Bft) O-NO 65 0,00 min 0 lux 9,8 C 11,5 C
17.07.2005 04:45 11,8 C 12,7 C 90 % 1015 hPa 0,0 l/m 0,0 m/s (0 Bft) O-NO 65 0,00 min 0 lux 10,2 C 11,8 C
17.07.2005 04:50 12,1 C 12,8 C 89 % 1015 hPa 0,0 l/m 0,0 m/s (0 Bft) O-NO 65 0,00 min 0 lux 10,3 C 12,1 C
17.07.2005 04:55 12,1 C 12,9 C 90 % 1015 hPa 0,0 l/m 0,0 m/s (0 Bft) O-NO 65 0,00 min 0 lux 10,5 C 12,1 C
17.07.2005 05:00 12,2 C 12,9 C 89 % 1015 hPa 0,0 l/m 0,0 m/s (0 Bft) O-NO 65 0,00 min 0 lux 10,4 C 12,2 C
17.07.2005 05:05 12,3 C 13,0 C 89 % 1015 hPa 0,0 l/m 0,0 m/s (0 Bft) O-NO 65 0,00 min 0 lux 10,5 C 12,3 C
17.07.2005 05:10 12,3 C 13,1 C 89 % 1015 hPa 0,0 l/m 0,0 m/s (0 Bft) O-NO 65 0,00 min 0 lux 10,5 C 12,3 C
17.07.2005 05:15 12,4 C 13,2 C 89 % 1015 hPa 0,0 l/m 0,0 m/s (0 Bft) O-NO 65 0,00 min 41 lux 10,6 C 12,4 C
17.07.2005 05:20 12,5 C 13,2 C 88 % 1015 hPa 0,0 l/m 0,0 m/s (0 Bft) O-NO 65 0,00 min 75 lux 10,6 C 12,5 C
17.07.2005 05:25 12,4 C 13,3 C 87 % 1015 hPa 0,0 l/m 0,0 m/s (0 Bft) O-NO 65 0,00 min 129 lux 10,3 C 12,4 C
17.07.2005 05:30 12,4 C 13,3 C 87 % 1015 hPa 0,0 l/m 0,0 m/s (0 Bft) O-NO 65 0,00 min 193 lux 10,3 C 12,4 C
17.07.2005 05:35 12,5 C 13,3 C 87 % 1015 hPa 0,0 l/m 0,0 m/s (0 Bft) O-NO 65 0,00 min 269 lux 10,4 C 12,5 C
17.07.2005 05:40 12,5 C 13,4 C 87 % 1015 hPa 0,0 l/m 0,0 m/s (0 Bft) O-NO 65 0,00 min 426 lux 10,4 C 12,5 C
17.07.2005 05:45 12,5 C 13,4 C 87 % 1015 hPa 0,0 l/m 0,0 m/s (0 Bft) O-NO 65 0,00 min 631 lux 10,4 C 12,5 C
17.07.2005 05:50 12,4 C 13,4 C 87 % 1015 hPa 0,0 l/m 0,0 m/s (0 Bft) O-NO 65 0,00 min 873 lux 10,3 C 12,4 C
17.07.2005 05:55 12,5 C 13,5 C 87 % 1015 hPa 0,0 l/m 0,0 m/s (0 Bft) O-NO 65 0,00 min 1,06 klux 10,4 C 12,5 C
17.07.2005 06:00 12,5 C 13,4 C 87 % 1015 hPa 0,0 l/m 0,0 m/s (0 Bft) O-NO 65 0,00 min 1,46 klux 10,4 C 12,5 C
17.07.2005 06:05 12,7 C 13,5 C 87 % 1015 hPa 0,0 l/m 0,0 m/s (0 Bft) O-NO 65 0,00 min 1,62 klux 10,6 C 12,7 C
17.07.2005 06:10 12,7 C 13,5 C 87 % 1015 hPa 0,0 l/m 0,0 m/s (0 Bft) O-NO 65 0,00 min 2,14 klux 10,6 C 12,7 C
17.07.2005 06:15 12,6 C 13,5 C 87 % 1015 hPa 0,0 l/m 0,0 m/s (0 Bft) O-NO 65 0,00 min 2,99 klux 10,5 C 12,6 C
17.07.2005 06:20 12,7 C 13,5 C 87 % 1016 hPa 0,0 l/m 0,0 m/s (0 Bft) O-NO 65 0,00 min 3,58 klux 10,6 C 12,7 C
17.07.2005 06:25 12,7 C 13,5 C 87 % 1016 hPa 0,0 l/m 0,0 m/s (0 Bft) O-NO 60 0,00 min 4,22 klux 10,6 C 12,7 C
17.07.2005 06:30 12,8 C 13,4 C 87 % 1015 hPa 0,0 l/m 0,0 m/s (0 Bft) O-NO 60 0,00 min 5,12 klux 10,7 C 12,8 C
17.07.2005 06:35 12,7 C 13,5 C 87 % 1015 hPa 0,0 l/m 0,0 m/s (0 Bft) O-NO 60 0,00 min 6,07 klux 10,6 C 12,7 C
17.07.2005 06:40 12,9 C 13,5 C 86 % 1016 hPa 0,0 l/m 1,2 m/s (1 Bft) O-NO 65 0,00 min 7,50 klux 10,6 C 12,9 C
17.07.2005 06:45 13,6 C 13,6 C 85 % 1015 hPa 0,0 l/m 0,1 m/s (0 Bft) O-NO 65 0,00 min 8,21 klux 11,1 C 13,6 C
17.07.2005 06:50 13,5 C 13,7 C 83 % 1016 hPa 0,0 l/m 0,9 m/s (0 Bft) O-NO 65 0,00 min 7,38 klux 10,7 C 13,5 C
17.07.2005 06:55 13,5 C 13,8 C 82 % 1016 hPa 0,0 l/m 0,4 m/s (0 Bft) W67.5 280 0,00 min 7,38 klux 10,5 C 13,5 C
17.07.2005 07:00 13,5 C 13,9 C 83 % 1016 hPa 0,0 l/m 0,0 m/s (0 Bft) W-SW 250 0,00 min 6,28 klux 10,7 C 13,5 C
17.07.2005 07:05 13,4 C 14,0 C 83 % 1016 hPa 0,0 l/m 0,0 m/s (0 Bft) W-SW 250 0,00 min 7,40 klux 10,6 C 13,4 C
17.07.2005 07:10 13,4 C 14,0 C 83 % 1016 hPa 0,0 l/m 1,2 m/s (1 Bft) W-SW22.5 250 0,00 min 7,88 klux 10,6 C 13,4 C
17.07.2005 07:15 13,5 C 14,1 C 83 % 1016 hPa 0,0 l/m 1,3 m/s (1 Bft) W-SW22.5 240 0,00 min 8,76 klux 10,7 C 13,5 C
17.07.2005 07:20 13,5 C 14,1 C 83 % 1016 hPa 0,0 l/m 1,3 m/s (1 Bft) W45 265 0,00 min 8,82 klux 10,7 C 13,5 C
17.07.2005 07:25 13,5 C 14,1 C 83 % 1016 hPa 0,0 l/m 1,1 m/s (1 Bft) W-SW22.5 255 0,00 min 8,96 klux 10,7 C 13,5 C
17.07.2005 07:30 13,8 C 14,3 C 83 % 1016 hPa 0,0 l/m 0,1 m/s (0 Bft) W 260 0,00 min 9,1 klux 11,0 C 13,8 C
17.07.2005 07:35 13,9 C 14,4 C 83 % 1016 hPa 0,0 l/m 0,0 m/s (0 Bft) W-SW22.5 255 0,00 min 8,85 klux 11,1 C 13,9 C
17.07.2005 07:40 13,9 C 14,4 C 82 % 1016 hPa 0,0 l/m 1,6 m/s (1 Bft) W22.5 280 0,00 min 10,2 klux 10,9 C 13,9 C
17.07.2005 07:45 14,5 C 14,4 C 80 % 1016 hPa 0,0 l/m 1,3 m/s (1 Bft) W22.5 260 5,00 min 25,1 klux 11,1 C 14,5 C
17.07.2005 07:50 15,2 C 14,5 C 73 % 1016 hPa 0,0 l/m 1,6 m/s (1 Bft) W-SW22.5 255 0,00 min 24,2 klux 10,4 C 15,2 C
17.07.2005 07:55 15,6 C 14,7 C 73 % 1016 hPa 0,0 l/m 1,6 m/s (1 Bft) W-SW22.5 255 0,00 min 20,6 klux 10,8 C 15,6 C
17.07.2005 08:00 14,8 C 14,7 C 75 % 1016 hPa 0,0 l/m 1,4 m/s (1 Bft) W-SW22.5 240 0,00 min 17,0 klux 10,4 C 14,8 C
17.07.2005 08:05 15,1 C 14,8 C 75 % 1016 hPa 0,0 l/m 2,9 m/s (1 Bft) W-SW22.5 240 0,00 min 15,9 klux 10,7 C 13,1 C
17.07.2005 08:10 15,1 C 14,8 C 75 % 1016 hPa 0,0 l/m 0,1 m/s (0 Bft) SW 230 0,00 min 20,2 klux 10,7 C 15,1 C
17.07.2005 08:15 15,2 C 14,8 C 75 % 1016 hPa 0,0 l/m 1,4 m/s (1 Bft) W-SW22.5 240 0,00 min 29,3 klux 10,8 C 15,2 C
17.07.2005 08:20 16,3 C 15,0 C 70 % 1016 hPa 0,0 l/m 0,2 m/s (0 Bft) W-SW22.5 240 0,00 min 29,4 klux 10,8 C 16,3 C
17.07.2005 08:25 17,1 C 15,1 C 66 % 1016 hPa 0,0 l/m 1,5 m/s (1 Bft) SW 230 5,00 min 33,7 klux 10,7 C 17,1 C
17.07.2005 08:30 16,7 C 15,2 C 62 % 1016 hPa 0,0 l/m 1,9 m/s (1 Bft) W-SW45 255 5,00 min 35,6 klux 9,4 C 16,5 C
17.07.2005 08:35 17,1 C 15,3 C 63 % 1016 hPa 0,0 l/m 1,7 m/s (1 Bft) W-SW22.5 255 5,00 min 38,7 klux 10,0 C 17,1 C
17.07.2005 08:40 18,0 C 15,5 C 60 % 1016 hPa 0,0 l/m 1,5 m/s (1 Bft) SW22.5 230 5,00 min 38,0 klux 10,1 C 18,0 C
17.07.2005 08:45 17,8 C 15,7 C 63 % 1016 hPa 0,0 l/m 1,6 m/s (1 Bft) SW22.5 235 5,00 min 38,0 klux 10,7 C 17,8 C
17.07.2005 08:50 17,4 C 15,7 C 65 % 1016 hPa 0,0 l/m 1,3 m/s (1 Bft) SW22.5 230 5,00 min 38,8 klux 10,8 C 17,4 C
17.07.2005 08:55 17,7 C 16,0 C 65 % 1016 hPa 0,0 l/m 0,1 m/s (0 Bft) SW22.5 225 5,00 min 44,4 klux 11,0 C 17,7 C
17.07.2005 09:00 17,7 C 16,3 C 65 % 1016 hPa 0,0 l/m 1,6 m/s (1 Bft) SW45 230 5,00 min 44,9 klux 11,0 C 17,7 C
17.07.2005 09:05 17,9 C 16,5 C 64 % 1016 hPa 0,0 l/m 1,1 m/s (1 Bft) SW22.5 230 0,00 min 38,8 klux 11,0 C 17,9 C
17.07.2005 09:10 18,2 C 16,6 C 63 % 1016 hPa 0,0 l/m 2,4 m/s (1 Bft) SW45 225 5,00 min 46,1 klux 11,0 C 17,1 C
17.07.2005 09:15 18,0 C 16,8 C 62 % 1016 hPa 0,0 l/m 2,0 m/s (1 Bft) W-SW22.5 255 5,00 min 48,1 klux 10,6 C 17,6 C
17.07.2005 09:20 18,3 C 17,1 C 62 % 1016 hPa 0,0 l/m 2,4 m/s (1 Bft) W-SW45 245 5,00 min 46,9 klux 10,9 C 17,4 C
17.07.2005 09:25 18,7 C 17,1 C 58 % 1016 hPa 0,0 l/m 2,2 m/s (1 Bft) SW67.5 235 5,00 min 51,4 klux 10,3 C 18,1 C
17.07.2005 09:30 18,6 C 17,4 C 59 % 1016 hPa 0,0 l/m 2,7 m/s (1 Bft) SW67.5 225 5,00 min 45,3 klux 10,4 C 17,2 C
17.07.2005 09:35 18,7 C 17,7 C 59 % 1016 hPa 0,0 l/m 1,9 m/s (1 Bft) SW22.5 220 0,00 min 43,2 klux 10,5 C 18,6 C
17.07.2005 09:40 19,0 C 17,8 C 57 % 1016 hPa 0,0 l/m 2,0 m/s (1 Bft) SW67.5 230 5,00 min 53,3 klux 10,3 C 18,7 C
17.07.2005 09:45 19,0 C 18,0 C 55 % 1016 hPa 0,0 l/m 3,3 m/s (1 Bft) W22.5 270 0,00 min 46,2 klux 9,8 C 16,9 C
17.07.2005 09:50 19,0 C 18,2 C 56 % 1016 hPa 0,0 l/m 3,0 m/s (1 Bft) W45 270 5,00 min 54,6 klux 10,0 C 17,2 C
17.07.2005 09:55 19,5 C 18,4 C 56 % 1016 hPa 0,0 l/m 0,8 m/s (0 Bft) W-NW22.5 285 5,00 min 53,8 klux 10,5 C 19,5 C
17.07.2005 10:00 19,7 C 18,6 C 54 % 1016 hPa 0,0 l/m 3,6 m/s (1 Bft) W-NW45 285 5,00 min 58,6 klux 10,1 C 17,4 C
17.07.2005 10:05 20,0 C 19,3 C 52 % 1016 hPa 0,0 l/m 1,8 m/s (1 Bft) W22.5 270 5,00 min 60,7 klux 9,8 C 19,9 C
17.07.2005 10:10 20,0 C 20,2 C 51 % 1016 hPa 0,0 l/m 2,5 m/s (1 Bft) W22.5 270 5,00 min 64,2 klux 9,6 C 19,0 C
17.07.2005 10:15 19,5 C 20,5 C 51 % 1016 hPa 0,0 l/m 4,6 m/s (1 Bft) W22.5 270 5,00 min 60,8 klux 9,1 C 16,3 C
17.07.2005 10:20 19,6 C 20,8 C 52 % 1016 hPa 0,0 l/m 3,1 m/s (1 Bft) W67.5 275 5,00 min 61,8 klux 9,5 C 17,8 C
17.07.2005 10:25 19,9 C 21,3 C 53 % 1016 hPa 0,0 l/m 3,2 m/s (1 Bft) W45 260 5,00 min 68,6 klux 10,0 C 18,0 C
17.07.2005 10:30 20,7 C 22,1 C 51 % 1016 hPa 0,0 l/m 3,6 m/s (1 Bft) W22.5 280 5,00 min 72,2 klux 10,2 C 18,5 C
17.07.2005 10:35 20,9 C 22,6 C 49 % 1016 hPa 0,0 l/m 2,0 m/s (1 Bft) W67.5 275 5,00 min 57,8 klux 9,8 C 20,6 C
17.07.2005 10:40 20,9 C 22,7 C 49 % 1016 hPa 0,0 l/m 3,7 m/s (1 Bft) W67.5 280 5,00 min 70,5 klux 9,8 C 18,8 C
17.07.2005 10:45 20,5 C 23,2 C 48 % 1016 hPa 0,0 l/m 2,9 m/s (1 Bft) W45 270 5,00 min 80,9 klux 9,1 C 19,0 C
17.07.2005 10:50 19,7 C 23,1 C 50 % 1016 hPa 0,0 l/m 4,1 m/s (1 Bft) W-SW67.5 250 5,00 min 76,3 klux 9,0 C 17,0 C
17.07.2005 10:55 20,2 C 23,1 C 51 % 1016 hPa 0,0 l/m 3,6 m/s (1 Bft) W45 260 5,00 min 79,9 klux 9,7 C 18,0 C
17.07.2005 11:00 21,1 C 23,5 C 49 % 1016 hPa 0,0 l/m 2,4 m/s (1 Bft) W-NW67.5 290 5,00 min 87,2 klux 10,0 C 20,3 C
17.07.2005 11:05 21,3 C 23,8 C 46 % 1016 hPa 0,0 l/m 0,9 m/s (0 Bft) N67.5 355 5,00 min 75,2 klux 9,2 C 21,3 C
17.07.2005 11:10 21,0 C 23,9 C 47 % 1016 hPa 0,0 l/m 5,3 m/s (1 Bft) W-NW67.5 290 5,00 min 78,5 klux 9,3 C 17,7 C
17.07.2005 11:15 22,5 C 24,2 C 44 % 1016 hPa 0,0 l/m 0,3 m/s (0 Bft) SW22.5 220 0,00 min 50,4 klux 9,6 C 22,5 C
17.07.2005 11:20 22,0 C 24,5 C 44 % 1016 hPa 0,0 l/m 2,8 m/s (1 Bft) W-SW 250 0,00 min 54,0 klux 9,2 C 20,9 C
17.07.2005 11:25 21,8 C 24,5 C 46 % 1016 hPa 0,0 l/m 3,0 m/s (1 Bft) W22.5 270 5,00 min 63,2 klux 9,7 C 20,4 C
17.07.2005 11:30 21,6 C 24,5 C 47 % 1016 hPa 0,0 l/m 3,9 m/s (1 Bft) W67.5 275 0,00 min 61,3 klux 9,8 C 19,4 C
17.07.2005 11:35 21,7 C 24,3 C 48 % 1016 hPa 0,0 l/m 2,7 m/s (1 Bft) W-NW22.5 285 0,00 min 48,3 klux 10,2 C 20,6 C
17.07.2005 11:40 20,8 C 24,0 C 48 % 1016 hPa 0,0 l/m 5,4 m/s (1 Bft) W-NW45 295 0,00 min 32,8 klux 9,4 C 17,3 C
17.07.2005 11:45 21,2 C 23,9 C 48 % 1016 hPa 0,0 l/m 4,9 m/s (1 Bft) W-NW45 285 5,00 min 83,5 klux 9,7 C 18,2 C
17.07.2005 11:50 21,9 C 24,7 C 46 % 1016 hPa 0,0 l/m 4,3 m/s (1 Bft) W45 280 5,00 min 88,6 klux 9,7 C 19,4 C
17.07.2005 11:55 21,3 C 24,8 C 47 % 1016 hPa 0,0 l/m 3,9 m/s (1 Bft) W-NW45 295 0,00 min 35,0 klux 9,5 C 19,0 C
17.07.2005 12:00 21,1 C 24,4 C 47 % 1016 hPa 0,0 l/m 5,4 m/s (1 Bft) W-NW45 285 0,00 min 42,2 klux 9,3 C 17,7 C
17.07.2005 12:05 21,1 C 24,2 C 50 % 1016 hPa 0,0 l/m 4,4 m/s (1 Bft) W45 280 5,00 min 87,1 klux 10,3 C 18,4 C
17.07.2005 12:10 21,4 C 24,6 C 48 % 1016 hPa 0,0 l/m 2,8 m/s (1 Bft) W-SW67.5 245 5,00 min 95,0 klux 9,9 C 20,2 C
17.07.2005 12:15 21,3 C 24,7 C 46 % 1016 hPa 0,0 l/m 6,0 m/s (2 Bft) W22.5 265 0,00 min 32,4 klux 9,2 C 17,6 C
17.07.2005 12:20 21,2 C 25,0 C 45 % 1016 hPa 0,0 l/m 3,2 m/s (1 Bft) SW67.5 235 5,00 min 88,8 klux 8,8 C 19,5 C
17.07.2005 12:25 21,5 C 25,6 C 45 % 1016 hPa 0,0 l/m 4,4 m/s (1 Bft) W22.5 270 5,00 min 89,9 klux 9,1 C 18,9 C
17.07.2005 12:30 21,2 C 25,8 C 46 % 1016 hPa 0,0 l/m 1,0 m/s (0 Bft) W-SW22.5 240 0,00 min 30,0 klux 9,1 C 21,2 C
17.07.2005 12:35 21,7 C 25,9 C 47 % 1016 hPa 0,0 l/m 5,1 m/s (1 Bft) W-NW45 285 5,00 min 87,5 klux 9,9 C 18,7 C
17.07.2005 12:40 22,0 C 26,5 C 43 % 1016 hPa 0,0 l/m 3,6 m/s (1 Bft) W-NW67.5 295 5,00 min 88,8 klux 8,8 C 20,1 C
17.07.2005 12:45 21,9 C 26,9 C 44 % 1016 hPa 0,0 l/m 1,1 m/s (1 Bft) W 280 0,00 min 33,2 klux 9,1 C 21,9 C
17.07.2005 12:50 21,9 C 26,9 C 45 % 1016 hPa 0,0 l/m 3,1 m/s (1 Bft) W45 260 5,00 min 87,4 klux 9,4 C 20,4 C
17.07.2005 12:55 22,4 C 27,1 C 43 % 1016 hPa 0,0 l/m 6,3 m/s (2 Bft) W22.5 275 5,00 min 90,2 klux 9,2 C 18,9 C
17.07.2005 13:00 22,6 C 27,8 C 43 % 1016 hPa 0,0 l/m 4,0 m/s (1 Bft) W67.5 270 5,00 min 92,1 klux 9,4 C 20,5 C
17.07.2005 13:05 22,9 C 28,3 C 45 % 1016 hPa 0,0 l/m 2,4 m/s (1 Bft) W-SW67.5 250 5,00 min 95,6 klux 10,3 C 22,2 C
17.07.2005 13:10 22,7 C 28,4 C 43 % 1016 hPa 0,0 l/m 6,6 m/s (2 Bft) W67.5 275 5,00 min 90,4 klux 9,5 C 19,2 C
17.07.2005 13:15 22,6 C 28,5 C 42 % 1016 hPa 0,0 l/m 4,1 m/s (1 Bft) W22.5 265 5,00 min 91,0 klux 9,0 C 20,4 C
17.07.2005 13:20 22,5 C 28,5 C 42 % 1016 hPa 0,0 l/m 1,8 m/s (1 Bft) NW67.5 325 0,00 min 28,8 klux 8,9 C 22,4 C
17.07.2005 13:25 22,8 C 28,5 C 42 % 1016 hPa 0,0 l/m 3,8 m/s (1 Bft) W-SW67.5 250 5,00 min 85,9 klux 9,2 C 20,9 C
17.07.2005 13:30 22,8 C 28,7 C 42 % 1016 hPa 0,0 l/m 4,5 m/s (1 Bft) W-NW45 285 5,00 min 86,6 klux 9,2 C 20,4 C
17.07.2005 13:35 22,9 C 29,2 C 41 % 1016 hPa 0,0 l/m 4,9 m/s (1 Bft) W-SW67.5 240 5,00 min 86,2 klux 8,9 C 20,3 C
17.07.2005 13:40 22,9 C 29,3 C 40 % 1016 hPa 0,0 l/m 4,9 m/s (1 Bft) W-SW67.5 240 5,00 min 85,8 klux 8,6 C 20,3 C
17.07.2005 13:45 23,2 C 29,6 C 38 % 1016 hPa 0,0 l/m 3,9 m/s (1 Bft) W22.5 275 5,00 min 86,6 klux 8,1 C 21,3 C
17.07.2005 13:50 23,3 C 30,3 C 39 % 1016 hPa 0,0 l/m 2,6 m/s (1 Bft) W67.5 265 5,00 min 86,4 klux 8,6 C 22,5 C
17.07.2005 13:55 23,3 C 30,4 C 38 % 1016 hPa 0,0 l/m 4,7 m/s (1 Bft) W45 260 5,00 min 86,5 klux 8,2 C 20,9 C
17.07.2005 14:00 23,4 C 30,7 C 38 % 1016 hPa 0,0 l/m 2,6 m/s (1 Bft) W-SW45 250 5,00 min 85,4 klux 8,3 C 22,6 C
17.07.2005 14:05 23,5 C 31,1 C 38 % 1016 hPa 0,0 l/m 0,1 m/s (0 Bft) SW67.5 225 5,00 min 85,0 klux 8,4 C 23,5 C
17.07.2005 14:10 23,4 C 31,3 C 39 % 1016 hPa 0,0 l/m 4,0 m/s (1 Bft) W45 275 5,00 min 85,5 klux 8,6 C 21,5 C
17.07.2005 14:15 23,5 C 31,5 C 35 % 1016 hPa 0,0 l/m 3,4 m/s (1 Bft) W-SW67.5 255 5,00 min 84,0 klux 7,1 C 22,0 C
17.07.2005 14:20 23,3 C 31,4 C 36 % 1016 hPa 0,0 l/m 6,2 m/s (2 Bft) W67.5 270 5,00 min 83,8 klux 7,4 C 20,2 C
17.07.2005 14:25 23,3 C 31,7 C 35 % 1016 hPa 0,0 l/m 4,7 m/s (1 Bft) W-NW45 290 5,00 min 85,0 klux 7,0 C 20,9 C
17.07.2005 14:30 23,7 C 31,8 C 35 % 1016 hPa 0,0 l/m 5,1 m/s (1 Bft) W-SW67.5 255 5,00 min 83,1 klux 7,3 C 21,2 C
17.07.2005 14:35 23,8 C 31,8 C 38 % 1016 hPa 0,0 l/m 4,0 m/s (1 Bft) W-SW67.5 245 5,00 min 84,7 klux 8,6 C 22,0 C
17.07.2005 14:40 24,2 C 31,8 C 35 % 1016 hPa 0,0 l/m 3,9 m/s (1 Bft) W-NW45 290 5,00 min 83,6 klux 7,8 C 22,5 C
17.07.2005 14:45 24,4 C 32,0 C 35 % 1016 hPa 0,0 l/m 3,8 m/s (1 Bft) W-SW45 255 5,00 min 83,6 klux 7,9 C 22,8 C
17.07.2005 14:50 24,2 C 32,2 C 32 % 1016 hPa 0,0 l/m 4,8 m/s (1 Bft) SW67.5 225 5,00 min 83,2 klux 6,5 C 22,0 C
17.07.2005 14:55 24,2 C 31,7 C 34 % 1016 hPa 0,0 l/m 6,5 m/s (2 Bft) W-NW45 290 5,00 min 82,5 klux 7,3 C 21,2 C
17.07.2005 15:00 24,8 C 32,1 C 35 % 1015 hPa 0,0 l/m 3,1 m/s (1 Bft) W-SW45 250 5,00 min 82,1 klux 8,3 C 23,7 C
17.07.2005 15:05 24,5 C 32,1 C 34 % 1015 hPa 0,0 l/m 7,3 m/s (2 Bft) W45 260 5,00 min 82,5 klux 7,6 C 21,4 C
17.07.2005 15:10 24,4 C 32,0 C 34 % 1015 hPa 0,0 l/m 4,9 m/s (1 Bft) W45 280 5,00 min 81,1 klux 7,5 C 22,2 C
17.07.2005 15:15 24,7 C 32,3 C 35 % 1015 hPa 0,0 l/m 4,9 m/s (1 Bft) W-NW45 290 5,00 min 80,5 klux 8,2 C 22,5 C
17.07.2005 15:20 24,9 C 32,6 C 32 % 1015 hPa 0,0 l/m 5,2 m/s (1 Bft) W67.5 260 5,00 min 81,9 klux 7,1 C 22,7 C
17.07.2005 15:25 24,9 C 33,1 C 32 % 1015 hPa 0,0 l/m 5,1 m/s (1 Bft) W22.5 260 5,00 min 79,7 klux 7,1 C 22,7 C
17.07.2005 15:30 24,4 C 33,2 C 31 % 1015 hPa 0,0 l/m 4,7 m/s (1 Bft) W67.5 275 5,00 min 79,1 klux 6,2 C 22,3 C
17.07.2005 15:35 24,7 C 33,4 C 31 % 1015 hPa 0,0 l/m 5,2 m/s (1 Bft) W22.5 265 5,00 min 79,0 klux 6,4 C 22,4 C
17.07.2005 15:40 24,8 C 33,3 C 31 % 1015 hPa 0,0 l/m 3,6 m/s (1 Bft) W67.5 270 5,00 min 77,0 klux 6,5 C 23,4 C
17.07.2005 15:45 24,9 C 33,3 C 30 % 1015 hPa 0,0 l/m 5,6 m/s (1 Bft) W22.5 260 5,00 min 77,7 klux 6,1 C 22,5 C
17.07.2005 15:50 25,1 C 33,6 C 30 % 1015 hPa 0,0 l/m 4,6 m/s (1 Bft) W-SW45 245 5,00 min 76,4 klux 6,3 C 23,2 C
17.07.2005 15:55 25,1 C 33,5 C 30 % 1015 hPa 0,0 l/m 4,4 m/s (1 Bft) W22.5 265 5,00 min 76,5 klux 6,3 C 23,3 C
17.07.2005 16:00 25,4 C 33,7 C 30 % 1015 hPa 0,0 l/m 6,3 m/s (2 Bft) W67.5 270 5,00 min 74,9 klux 6,6 C 22,9 C
17.07.2005 16:05 25,1 C 33,6 C 30 % 1015 hPa 0,0 l/m 6,4 m/s (2 Bft) W45 265 5,00 min 73,7 klux 6,3 C 22,5 C
17.07.2005 16:10 24,9 C 33,3 C 30 % 1015 hPa 0,0 l/m 4,7 m/s (1 Bft) W45 265 5,00 min 73,3 klux 6,1 C 22,9 C
17.07.2005 16:15 24,9 C 33,5 C 31 % 1015 hPa 0,0 l/m 4,3 m/s (1 Bft) W45 260 5,00 min 72,2 klux 6,6 C 23,1 C
17.07.2005 16:20 25,0 C 34,0 C 29 % 1015 hPa 0,0 l/m 3,4 m/s (1 Bft) W22.5 265 5,00 min 71,0 klux 5,7 C 23,8 C
17.07.2005 16:25 25,3 C 34,0 C 30 % 1015 hPa 0,0 l/m 4,1 m/s (1 Bft) W-SW45 255 5,00 min 70,9 klux 6,5 C 23,7 C
17.07.2005 16:30 25,3 C 33,6 C 30 % 1015 hPa 0,0 l/m 4,6 m/s (1 Bft) W-NW22.5 285 5,00 min 70,0 klux 6,5 C 23,5 C
17.07.2005 16:35 25,6 C 33,7 C 31 % 1015 hPa 0,0 l/m 2,9 m/s (1 Bft) W67.5 265 5,00 min 69,5 klux 7,2 C 24,7 C
17.07.2005 16:40 25,6 C 34,5 C 31 % 1015 hPa 0,0 l/m 4,3 m/s (1 Bft) W-SW67.5 250 5,00 min 69,1 klux 7,2 C 24,0 C
17.07.2005 16:45 25,3 C 34,3 C 30 % 1015 hPa 0,0 l/m 3,5 m/s (1 Bft) W-SW45 250 5,00 min 67,9 klux 6,5 C 24,0 C
17.07.2005 16:50 25,6 C 33,8 C 31 % 1015 hPa 0,0 l/m 4,3 m/s (1 Bft) W-NW45 290 5,00 min 66,7 klux 7,2 C 24,0 C
17.07.2005 16:55 25,5 C 33,7 C 29 % 1015 hPa 0,0 l/m 3,7 m/s (1 Bft) W67.5 265 5,00 min 65,2 klux 6,1 C 24,2 C
17.07.2005 17:00 25,1 C 34,1 C 30 % 1015 hPa 0,0 l/m 3,3 m/s (1 Bft) W45 265 5,00 min 64,9 klux 6,3 C 23,9 C
17.07.2005 17:05 25,3 C 34,3 C 30 % 1015 hPa 0,0 l/m 3,9 m/s (1 Bft) W67.5 280 5,00 min 63,7 klux 6,5 C 23,8 C
17.07.2005 17:10 24,9 C 34,5 C 30 % 1015 hPa 0,0 l/m 4,8 m/s (1 Bft) W45 265 5,00 min 63,5 klux 6,1 C 22,9 C
17.07.2005 17:15 25,6 C 34,7 C 30 % 1015 hPa 0,0 l/m 2,8 m/s (1 Bft) SW22.5 230 5,00 min 62,5 klux 6,7 C 24,8 C
17.07.2005 17:20 25,8 C 34,6 C 30 % 1015 hPa 0,0 l/m 3,8 m/s (1 Bft) W-SW67.5 245 5,00 min 60,9 klux 6,9 C 24,5 C
17.07.2005 17:25 25,9 C 34,5 C 30 % 1015 hPa 0,0 l/m 3,3 m/s (1 Bft) W45 260 5,00 min 60,0 klux 7,0 C 24,9 C
17.07.2005 17:30 25,6 C 34,7 C 30 % 1015 hPa 0,0 l/m 3,5 m/s (1 Bft) W-SW22.5 250 5,00 min 59,4 klux 6,7 C 24,4 C
17.07.2005 17:35 26,0 C 35,0 C 30 % 1014 hPa 0,0 l/m 3,4 m/s (1 Bft) W-SW67.5 240 5,00 min 58,4 klux 7,1 C 24,9 C
17.07.2005 17:40 25,4 C 35,0 C 29 % 1014 hPa 0,0 l/m 2,9 m/s (1 Bft) W-SW45 250 5,00 min 57,7 klux 6,1 C 24,5 C
17.07.2005 17:45 25,4 C 34,8 C 29 % 1014 hPa 0,0 l/m 4,3 m/s (1 Bft) W22.5 270 5,00 min 56,3 klux 6,1 C 23,8 C
17.07.2005 17:50 25,7 C 34,6 C 30 % 1014 hPa 0,0 l/m 0,6 m/s (0 Bft) W-NW45 295 5,00 min 55,3 klux 6,8 C 25,7 C
17.07.2005 17:55 25,9 C 34,8 C 30 % 1014 hPa 0,0 l/m 4,8 m/s (1 Bft) W22.5 265 5,00 min 54,1 klux 7,0 C 24,1 C
17.07.2005 18:00 25,7 C 34,6 C 29 % 1014 hPa 0,0 l/m 3,5 m/s (1 Bft) W45 260 5,00 min 53,0 klux 6,3 C 24,5 C
17.07.2005 18:05 25,4 C 34,4 C 29 % 1014 hPa 0,0 l/m 4,1 m/s (1 Bft) W45 265 5,00 min 52,0 klux 6,1 C 23,8 C
17.07.2005 18:10 25,6 C 34,6 C 30 % 1014 hPa 0,0 l/m 3,3 m/s (1 Bft) W-SW45 250 5,00 min 51,0 klux 6,7 C 24,5 C
17.07.2005 18:15 25,5 C 34,0 C 31 % 1014 hPa 0,0 l/m 4,9 m/s (1 Bft) W22.5 260 5,00 min 49,8 klux 7,1 C 23,6 C
17.07.2005 18:20 25,4 C 33,9 C 28 % 1014 hPa 0,0 l/m 2,1 m/s (1 Bft) W-NW45 300 5,00 min 49,3 klux 5,6 C 25,2 C
17.07.2005 18:25 25,4 C 33,8 C 28 % 1014 hPa 0,0 l/m 3,9 m/s (1 Bft) W22.5 275 5,00 min 48,1 klux 5,6 C 23,9 C
17.07.2005 18:30 25,4 C 33,9 C 30 % 1014 hPa 0,0 l/m 2,2 m/s (1 Bft) W-SW67.5 250 5,00 min 47,1 klux 6,6 C 25,0 C
17.07.2005 18:35 25,4 C 33,9 C 30 % 1014 hPa 0,0 l/m 3,5 m/s (1 Bft) W-SW45 255 5,00 min 46,0 klux 6,6 C 24,2 C
17.07.2005 18:40 25,1 C 33,9 C 29 % 1014 hPa 0,0 l/m 2,6 m/s (1 Bft) W45 260 5,00 min 44,7 klux 5,8 C 24,4 C
17.07.2005 18:45 25,2 C 33,6 C 30 % 1014 hPa 0,0 l/m 5,1 m/s (1 Bft) SW67.5 235 5,00 min 43,7 klux 6,4 C 23,1 C
17.07.2005 18:50 25,1 C 33,4 C 30 % 1014 hPa 0,0 l/m 2,9 m/s (1 Bft) W67.5 260 5,00 min 42,5 klux 6,3 C 24,2 C
17.07.2005 18:55 24,9 C 33,3 C 30 % 1014 hPa 0,0 l/m 3,4 m/s (1 Bft) W45 260 5,00 min 41,1 klux 6,1 C 23,6 C
17.07.2005 19:00 25,3 C 33,4 C 30 % 1014 hPa 0,0 l/m 2,9 m/s (1 Bft) W22.5 270 5,00 min 39,3 klux 6,5 C 24,4 C
17.07.2005 19:05 25,6 C 33,3 C 28 % 1014 hPa 0,0 l/m 3,3 m/s (1 Bft) W45 265 5,00 min 38,7 klux 5,7 C 24,5 C
17.07.2005 19:10 27,6 C 33,0 C 27 % 1014 hPa 0,0 l/m 3,7 m/s (1 Bft) W22.5 265 5,00 min 37,6 klux 6,9 C 26,6 C
17.07.2005 19:15 27,9 C 33,0 C 25 % 1014 hPa 0,0 l/m 3,2 m/s (1 Bft) W-SW45 250 5,00 min 36,8 klux 6,0 C 27,2 C
17.07.2005 19:20 27,1 C 32,7 C 25 % 1014 hPa 0,0 l/m 3,7 m/s (1 Bft) W45 260 5,00 min 35,5 klux 5,4 C 26,0 C
17.07.2005 19:25 26,8 C 32,5 C 26 % 1014 hPa 0,0 l/m 2,6 m/s (1 Bft) W-SW22.5 250 5,00 min 34,4 klux 5,7 C 26,2 C
17.07.2005 19:30 27,0 C 32,4 C 25 % 1014 hPa 0,0 l/m 2,2 m/s (1 Bft) W22.5 260 5,00 min 33,1 klux 5,3 C 26,7 C
17.07.2005 19:35 26,6 C 32,3 C 26 % 1014 hPa 0,0 l/m 3,3 m/s (1 Bft) W22.5 270 5,00 min 31,8 klux 5,5 C 25,7 C
17.07.2005 19:40 26,6 C 32,1 C 26 % 1014 hPa 0,0 l/m 3,3 m/s (1 Bft) W22.5 260 5,00 min 30,5 klux 5,5 C 25,6 C
17.07.2005 19:45 26,4 C 31,7 C 27 % 1014 hPa 0,0 l/m 2,2 m/s (1 Bft) W-SW45 250 5,00 min 29,1 klux 5,9 C 26,1 C
17.07.2005 19:50 27,6 C 31,6 C 25 % 1014 hPa 0,0 l/m 2,3 m/s (1 Bft) W22.5 275 5,00 min 27,8 klux 5,8 C 27,3 C
17.07.2005 19:55 26,9 C 31,3 C 26 % 1014 hPa 0,0 l/m 2,3 m/s (1 Bft) W22.5 275 5,00 min 26,4 klux 5,8 C 26,5 C
17.07.2005 20:00 25,8 C 30,6 C 27 % 1014 hPa 0,0 l/m 3,5 m/s (1 Bft) W22.5 265 5,00 min 24,9 klux 5,4 C 24,6 C
17.07.2005 20:05 25,5 C 30,1 C 28 % 1014 hPa 0,0 l/m 3,6 m/s (1 Bft) W-SW22.5 255 5,00 min 24,2 klux 5,6 C 24,2 C
17.07.2005 20:10 24,8 C 29,9 C 29 % 1014 hPa 0,0 l/m 3,0 m/s (1 Bft) W22.5 260 5,00 min 22,7 klux 5,5 C 23,8 C
17.07.2005 20:15 24,5 C 29,3 C 30 % 1014 hPa 0,0 l/m 2,1 m/s (1 Bft) W22.5 260 5,00 min 20,9 klux 5,8 C 24,2 C
17.07.2005 20:20 24,1 C 28,9 C 31 % 1014 hPa 0,0 l/m 1,9 m/s (1 Bft) W22.5 265 5,00 min 18,7 klux 5,9 C 24,0 C
17.07.2005 20:25 23,6 C 28,5 C 33 % 1014 hPa 0,0 l/m 2,3 m/s (1 Bft) W22.5 265 5,00 min 17,9 klux 6,4 C 23,0 C
17.07.2005 20:30 23,4 C 28,1 C 34 % 1014 hPa 0,0 l/m 1,9 m/s (1 Bft) W-SW22.5 250 5,00 min 16,4 klux 6,6 C 23,3 C
17.07.2005 20:35 23,0 C 27,5 C 35 % 1014 hPa 0,0 l/m 1,8 m/s (1 Bft) W-SW22.5 255 5,00 min 15,0 klux 6,7 C 23,0 C
17.07.2005 20:40 22,7 C 27,2 C 37 % 1014 hPa 0,0 l/m 1,4 m/s (1 Bft) W-SW22.5 255 5,00 min 13,4 klux 7,3 C 22,7 C
17.07.2005 20:45 22,6 C 26,5 C 37 % 1014 hPa 0,0 l/m 1,4 m/s (1 Bft) W 270 5,00 min 11,8 klux 7,2 C 22,6 C
17.07.2005 20:50 22,3 C 25,8 C 39 % 1014 hPa 0,0 l/m 1,3 m/s (1 Bft) W22.5 265 5,00 min 10,1 klux 7,7 C 22,3 C
17.07.2005 20:55 22,0 C 25,5 C 40 % 1014 hPa 0,0 l/m 1,1 m/s (0 Bft) W 270 0,00 min 3,21 klux 7,8 C 22,0 C
17.07.2005 21:00 21,7 C 25,0 C 41 % 1014 hPa 0,0 l/m 1,6 m/s (1 Bft) W22.5 270 0,00 min 3,00 klux 7,9 C 21,7 C
17.07.2005 21:05 21,5 C 24,5 C 41 % 1014 hPa 0,0 l/m 1,7 m/s (1 Bft) W22.5 270 0,00 min 2,56 klux 7,7 C 21,5 C
17.07.2005 21:10 21,1 C 24,1 C 44 % 1014 hPa 0,0 l/m 1,2 m/s (1 Bft) W22.5 280 0,00 min 2,18 klux 8,4 C 21,1 C
17.07.2005 21:15 20,8 C 23,8 C 46 % 1014 hPa 0,0 l/m 0,8 m/s (0 Bft) W-NW 290 0,00 min 1,79 klux 8,8 C 20,8 C
17.07.2005 21:20 20,6 C 23,3 C 47 % 1014 hPa 0,0 l/m 0,1 m/s (0 Bft) W-NW 285 0,00 min 1,41 klux 8,9 C 20,6 C
17.07.2005 21:25 20,0 C 22,9 C 48 % 1014 hPa 0,0 l/m 0,0 m/s (0 Bft) NW22.5 320 0,00 min 1,06 klux 8,7 C 20,0 C
17.07.2005 21:30 19,8 C 22,6 C 50 % 1014 hPa 0,0 l/m 0,0 m/s (0 Bft) W22.5 270 0,00 min 775 lux 9,1 C 19,8 C
17.07.2005 21:35 19,6 C 22,4 C 50 % 1014 hPa 0,0 l/m 0,0 m/s (0 Bft) W 265 0,00 min 537 lux 8,9 C 19,6 C
17.07.2005 21:40 19,3 C 22,2 C 50 % 1014 hPa 0,0 l/m 0,0 m/s (0 Bft) W 270 0,00 min 357 lux 8,6 C 19,3 C
17.07.2005 21:45 19,0 C 21,7 C 52 % 1014 hPa 0,0 l/m 0,0 m/s (0 Bft) W 270 0,00 min 225 lux 8,9 C 19,0 C
17.07.2005 21:50 18,9 C 21,7 C 56 % 1014 hPa 0,0 l/m 0,0 m/s (0 Bft) W 265 0,00 min 176 lux 9,9 C 18,9 C
17.07.2005 21:55 18,6 C 21,2 C 58 % 1014 hPa 0,0 l/m 0,0 m/s (0 Bft) W 265 0,00 min 103 lux 10,2 C 18,6 C
17.07.2005 22:00 18,2 C 20,9 C 57 % 1014 hPa 0,0 l/m 0,0 m/s (0 Bft) W 265 0,00 min 59 lux 9,5 C 18,2 C
17.07.2005 22:05 18,2 C 20,7 C 57 % 1014 hPa 0,0 l/m 0,0 m/s (0 Bft) W 265 0,00 min 34 lux 9,5 C 18,2 C
17.07.2005 22:10 17,7 C 20,4 C 60 % 1014 hPa 0,0 l/m 0,0 m/s (0 Bft) SO45 130 0,00 min 20 lux 9,8 C 17,7 C
17.07.2005 22:15 17,5 C 20,1 C 62 % 1014 hPa 0,0 l/m 0,0 m/s (0 Bft) O-SO 110 0,00 min 15 lux 10,1 C 17,5 C
17.07.2005 22:20 17,2 C 19,8 C 64 % 1014 hPa 0,0 l/m 0,0 m/s (0 Bft) O-SO 110 0,00 min 9 lux 10,3 C 17,2 C
17.07.2005 22:25 16,9 C 19,6 C 64 % 1014 hPa 0,0 l/m 0,0 m/s (0 Bft) O 95 0,00 min 6 lux 10,0 C 16,9 C
17.07.2005 22:30 17,1 C 19,3 C 64 % 1014 hPa 0,0 l/m 0,0 m/s (0 Bft) O 100 0,00 min 5 lux 10,2 C 17,1 C
17.07.2005 22:35 17,3 C 19,0 C 63 % 1014 hPa 0,0 l/m 0,2 m/s (0 Bft) O 80 0,00 min 4 lux 10,2 C 17,3 C
17.07.2005 22:40 17,1 C 18,9 C 63 % 1014 hPa 0,0 l/m 0,1 m/s (0 Bft) O-NO 75 0,00 min 2 lux 10,0 C 17,1 C
17.07.2005 22:45 17,0 C 18,7 C 64 % 1014 hPa 0,0 l/m 0,0 m/s (0 Bft) O-NO 65 0,00 min 2 lux 10,1 C 17,0 C
17.07.2005 22:50 16,7 C 18,5 C 66 % 1014 hPa 0,0 l/m 0,0 m/s (0 Bft) O-NO 65 0,00 min 1 lux 10,3 C 16,7 C
17.07.2005 22:55 16,6 C 18,4 C 66 % 1014 hPa 0,0 l/m 0,0 m/s (0 Bft) O-NO 70 0,00 min 1 lux 10,2 C 16,6 C
17.07.2005 23:00 16,5 C 18,2 C 67 % 1014 hPa 0,0 l/m 0,0 m/s (0 Bft) O-NO 65 0,00 min 1 lux 10,4 C 16,5 C
17.07.2005 23:05 16,1 C 18,1 C 67 % 1014 hPa 0,0 l/m 0,0 m/s (0 Bft) O-NO 65 0,00 min 0 lux 10,0 C 16,1 C
17.07.2005 23:10 16,1 C 18,0 C 68 % 1014 hPa 0,0 l/m 0,0 m/s (0 Bft) O-NO 65 0,00 min 0 lux 10,2 C 16,1 C
17.07.2005 23:15 15,9 C 17,9 C 69 % 1014 hPa 0,0 l/m 0,0 m/s (0 Bft) O-NO 65 0,00 min 0 lux 10,2 C 15,9 C
17.07.2005 23:20 16,0 C 17,7 C 68 % 1014 hPa 0,0 l/m 0,0 m/s (0 Bft) O-NO 65 0,00 min 0 lux 10,1 C 16,0 C
17.07.2005 23:25 15,6 C 17,5 C 70 % 1014 hPa 0,0 l/m 0,0 m/s (0 Bft) O-NO 65 0,00 min 0 lux 10,1 C 15,6 C
17.07.2005 23:30 15,8 C 17,5 C 71 % 1014 hPa 0,0 l/m 0,0 m/s (0 Bft) O-NO 65 0,00 min 0 lux 10,6 C 15,8 C
17.07.2005 23:35 15,4 C 17,3 C 72 % 1014 hPa 0,0 l/m 0,0 m/s (0 Bft) O-NO 65 0,00 min 0 lux 10,4 C 15,4 C
17.07.2005 23:40 15,2 C 17,2 C 71 % 1014 hPa 0,0 l/m 0,0 m/s (0 Bft) O-NO 65 0,00 min 0 lux 10,0 C 15,2 C
17.07.2005 23:45 15,2 C 17,0 C 72 % 1014 hPa 0,0 l/m 0,0 m/s (0 Bft) O-NO 65 0,00 min 0 lux 10,2 C 15,2 C
17.07.2005 23:50 15,0 C 16,9 C 72 % 1014 hPa 0,0 l/m 0,0 m/s (0 Bft) O-NO 65 0,00 min 0 lux 10,0 C 15,0 C
17.07.2005 23:55 15,2 C 16,7 C 73 % 1014 hPa 0,0 l/m 0,0 m/s (0 Bft) O-NO 65 0,00 min 0 lux 10,4 C 15,2 C
_ Min-Zeit 04:40 04:35 19:15 17:35 - 00:00 - - - - 19:30 04:40
Minimum _ 11,5 C 12,7 C 25 % 1014 hPa - 0,0 m/s (0 Bft) - - - - 5,3 C 11,5 C
_ Max-Zeit 19:15 17:35 04:45 01:25 00:00 15:05 - - 07:45 13:05 00:45 19:50
Maximum _ 27,9 C 35,0 C 90 % 1016 hPa 0,0 l/m 7,3 m/s
W (4 Bft)
- - 5,00 min 95,6 klux 11,5 C 27,3 C
Durchschnitt _ 18,9 C 22,2 C 58 % 1015 hPa #0,0 l/m 1,9 m/s (2 Bft) W - #11:25 h 32,3 klux 9,1 C 18,2 C